SL-16 DEB, 29098

Orbit data source: Space-Track

SL-16 DEB, 29098 is space debris in LEO originally from a launch on Fri, 26 Mar 1993 UTC launched from the Tyuratam Missile And Space Complex (TTMTR). Debris objects in space refer to the collection of defunct objects orbiting the Earth. Examples of debris include non-operational satellites, rocket bodies, and fragments generated from explosions, collisions, or faulty payload assembly.

Loading next visibility...
Identifier
29098, 1993-016AM
Orbit
LEO
Country
Flag of CISCIS
Related business
Manufacturer
Unknown
Mission
Spacecraft
Bus & Motor
Unknown
Mass
Unknown
Launch date (UTC)
1993-03-26 (33 years ago)
Launch vehicle
Unknown
Launch site
Tyuratam Missile And Space Complex (TTMTR)
Object type
Payload
Rocket body
Debris
Shape & HBR
Unknown shape, 0.1 m
Radar Cross Section
Small (<0.1 m²)

Expand to show TLE details & history
Last TLE update: 1 day ago

TLE from 1 day ago
0 SL-16 DEB
1 29098U 93016AM  25288.37942571  .00001184  00000-0  59224-3 0  9999
2 29098  70.9262 324.3274 0082587 211.0952 169.3735 14.17059635636102
Epoch: 2025-10-15T09:06Z
TLE epoch observation values (Epoch: 2025-10-15T09:06:22.381Z)
Latitude
19.47039°
Longitude
170.56436°
Altitude
895.833 km
Speed
7.376 km/s
True Right ascension
22h 05m 14s
True Declination
19° 21' 53"
Sunlit
Object was in full shadow at epoch
Visualization orbit readout
Latitude
Unknown
Longitude
Unknown
Altitude
Unknown
Speed
Unknown
Apparent Right ascension
Unknown
Apparent Declination
Unknown
Sunlit
N/A
Visualization observer readout
Local Sidereal Time
04:23:27
Azimuth
Unknown
Elevation
Unknown
Doppler factor
Unknown
Orbital elements
Apogee altitude
892.801 km
Perigee altitude
773.687 km
Semi-major axis
7,211.381 km
Eccentricity
0.00826
Inclination
70.9262°
RAAN
324.3274°
Arg. of periapsis
211.0952°
True anomaly
169.54626°
Mean anomaly
169.3735°
Eccentric anomaly
169.46006°
Mean motion
3.54418 °/min
Orbital period
101.58 mins
BSTAR
0.00059224
Loading maneuver chart data...
Computing Atmospheric mass density...
Loading historical data...
Loading historical data...
Loading historical data...
Loading historical data...
Loading historical data...
Loading historical data...
Loading historical data...

Documentation

Showing up to 5 results
|